Regional Weather Roundup
Issued by NWS

Home | Current Version | Previous Version | Text Only | Print | Product List | Glossary On
Versions: 1 2 3 4 5 6 7 8 9 10 11 12 13 14 15 16 17 18 19 20 21 22 23 24 25 26 27 28 29 30 31 32 33 34 35 36 37 38 39 40 41 42 43 44 45 46 47 48 49 50
000
ASPQ40 PGUM 261112
RWRPQ
WEATHER ROUNDUP FOR THE MARIANAS AND MICRONESIA
NATIONAL WEATHER SERVICE TIYAN GU
900 PM CHST SUN MAR 26 2017

GUZ001>004-261200-
MARIANA ISLANDS-

CITY           SKY/WX    TMP DP  RH WIND       PRES   REMARKS
GUAM AIRPORT   PTCLDY    81  73  78 E8        29.99R
ANDERSEN AFB   MOCLDY    79  73  83 E14       30.00R
ROTA AIRPORT   NOT AVBL
TINIAN AP      NOT AVBL
SAIPAN AP      PTCLDY    81  73  78 E13       29.97S

$$

PMZ161-261200-
REPUBLIC OF PALAU-

CITY           SKY/WX    TMP DP  RH WIND       PRES   REMARKS
KOROR AP       CLOUDY    81  77  89 E7        29.88R
KOROR WSO      MOCLDY    82  77  83 E10       29.88R HX  91

$$

PMZ171>174-261200-
FEDERATED STATES OF MICRONESIA-

CITY           SKY/WX    TMP DP  RH WIND       PRES   REMARKS
YAP AIRPORT    MOCLDY    82  75  78 VRB7      29.90R
CHUUK AP       NOT AVBL
POHNPEI AP     MOCLDY    82  77  83 E17       29.88R HX  91
POHNPEI WSO    MOCLDY    82  75  78 NE12      29.93R
KOSRAE AP      NOT AVBL

$$

PMZ181-261200-
REPUBLIC OF THE MARSHALL ISLANDS-

CITY           SKY/WX    TMP DP  RH WIND       PRES   REMARKS
KWAJALEIN AP   MOCLDY    82  73  74 NE22      29.94R
MAJURO AP      NOT AVBL
MAJURO WSO     MOCLDY    81  77  89 NE10      29.88F

$$




USA.gov is the U.S. government's official web portal to all federal, state and local government web resources and services.